Weather reports worldwide

Advertisment
St Joseph MO/Rosecrans, United States of America (72449): temperature & dewpoint: 19.05.2019 17:00:00 - 25.05.2019 17:00:00 (CDT)St Joseph MO/Rosecrans, United States of America (72449): wind speed & gusts: 19.05.2019 17:00:00 - 25.05.2019 17:00:00 (CDT)St Joseph MO/Rosecrans, United States of America (72449): wind direction: 19.05.2019 17:00:00 - 25.05.2019 17:00:00 (CDT)St Joseph MO/Rosecrans, United States of America (72449): reduced air pressure: 19.05.2019 17:00:00 - 25.05.2019 17:00:00 (CDT)St Joseph MO/Rosecrans, United States of America (72449): visibility: 19.05.2019 17:00:00 - 25.05.2019 17:00:00 (CDT)St Joseph MO/Rosecrans, United States of America (72449): precipitation: 19.05.2019 17:00:00 - 25.05.2019 17:00:00 (CDT)
Date & Time tt [°C] td [°C] ff [km/h] ff [kn] fx [km/h] fx [kn] dd ppp [hPa] vv [km] rr [mm]
25.05.2019 17:00:00 25,0 20,0 16 9 - - SSW 1013,6 16 -
25.05.2019 16:00:00 25,0 20,0 9 5 - - SSW 1013,9 16 -
25.05.2019 15:00:00 25,6 20,0 15 8 - - SSW 1014,0 16 -
25.05.2019 14:00:00 24,4 19,4 11 6 - - S 1014,1 16 -
25.05.2019 13:00:00 23,9 18,3 11 6 - - S 1014,5 16 -
25.05.2019 12:00:00 23,9 18,9 18 10 - - S 1014,8 16 -
25.05.2019 11:00:00 22,2 18,3 18 10 - - SSW 1014,7 16 -
25.05.2019 10:00:00 21,7 17,8 22 12 - - SSW 1014,7 16 -
25.05.2019 09:00:00 20,6 17,2 16 9 - - SSW 1014,6 16 -
25.05.2019 08:00:00 18,9 17,2 11 6 - - SSW 1013,8 16 -
25.05.2019 07:00:00 17,8 16,7 5 3 - - S 1013,0 16 -
25.05.2019 06:00:00 18,3 16,7 13 7 - - S 1012,7 16 -
25.05.2019 05:00:00 18,3 16,7 15 8 - - SSE 1012,5 16 -
25.05.2019 04:00:00 18,9 16,7 13 7 - - SSE 1011,6 16 2,0
25.05.2019 03:00:00 18,9 17,2 11 6 - - SSW 1012,5 11 0,5
25.05.2019 02:00:00 19,4 17,2 28 15 - - SSW 1011,4 11 0,8
25.05.2019 01:00:00 20,0 17,2 18 10 - - SSW 1011,3 16 -
25.05.2019 00:00:00 19,4 17,2 18 10 - - S 1011,3 16 -
24.05.2019 23:00:00 20,0 16,7 22 12 - - S 1011,2 16 -
24.05.2019 22:00:00 20,6 17,2 15 8 - - S 1010,0 16 0,0
24.05.2019 21:00:00 21,1 17,8 21 11 - - SSE 1009,8 16 0,3
24.05.2019 20:00:00 22,8 20,0 21 11 - - S 1008,5 16 0,3
24.05.2019 19:00:00 20,6 19,4 8 4 - - E 1010,6 4,8 0,3
24.05.2019 18:00:00 21,1 19,4 8 4 - - S 1010,9 15 0,0
24.05.2019 17:00:00 23,3 18,9 8 4 - - SW 1011,4 16 -
24.05.2019 16:00:00 25,0 17,8 16 9 - - SW 1012,1 16 -
24.05.2019 15:00:00 27,2 17,2 35 19 48 26 SSW 1012,1 16 -
24.05.2019 14:00:00 27,2 17,8 24 13 - - WSW 1011,9 16 -
24.05.2019 13:00:00 25,6 18,9 24 13 - - SW 1012,2 16 -
24.05.2019 12:00:00 25,0 18,9 22 12 - - S 1012,3 10 -
24.05.2019 11:00:00 23,3 20,0 11 6 - - S 1011,4 16 -
24.05.2019 10:00:00 20,6 18,3 16 9 - - E 1010,5 16 -
24.05.2019 09:00:00 19,4 17,8 8 4 - - ESE 1013,8 16 -
24.05.2019 08:00:00 18,9 17,2 0 0 - - N 1013,8 16 0,3
24.05.2019 07:00:00 18,3 17,2 8 4 61 33 ENE 1013,5 8 4,1
24.05.2019 06:00:00 19,4 16,7 26 14 52 28 N 1012,6 16 -
24.05.2019 05:00:00 21,7 18,9 13 7 - - S 1011,6 16 -
24.05.2019 04:00:00 21,1 18,9 13 7 - - S 1011,7 16 -
24.05.2019 03:00:00 20,6 18,3 11 6 - - SE 1011,8 16 -
24.05.2019 02:00:00 21,1 17,8 8 4 - - SSW 1013,4 16 -
24.05.2019 01:00:00 20,6 16,7 18 10 - - SSE 1013,4 16 -
24.05.2019 00:00:00 20,0 16,1 22 12 - - SSE 1013,2 16 0,0
23.05.2019 23:00:00 20,6 15,6 18 10 - - SSE 1014,6 16 0,0
23.05.2019 22:00:00 21,7 13,9 16 9 - - E 1014,2 16 -
23.05.2019 21:00:00 21,7 14,4 11 6 - - E 1014,2 16 -
23.05.2019 20:00:00 22,2 13,9 16 9 - - E 1014,8 16 -
23.05.2019 19:00:00 22,8 13,9 11 6 - - E 1016,1 16 -
23.05.2019 18:00:00 23,3 13,9 15 8 - - E 1016,4 16 -
23.05.2019 17:00:00 23,3 13,3 11 6 - - E 1017,2 16 -
23.05.2019 16:00:00 23,3 12,2 5 3 - - ESE 1017,5 16 -
23.05.2019 15:00:00 23,3 11,7 8 4 - - ENE 1017,9 16 -
23.05.2019 14:00:00 22,8 10,0 13 7 - - E 1018,6 16 -
23.05.2019 13:00:00 21,7 8,9 9 5 - - E 1018,9 16 -
23.05.2019 12:00:00 21,7 8,9 8 4 - - NNE 1019,0 16 -
23.05.2019 11:00:00 20,0 8,3 - - - - - 1019,6 - -
23.05.2019 10:00:00 18,3 8,9 15 8 - - N 1019,7 16 -
23.05.2019 09:00:00 16,1 12,8 8 4 - - N 1019,6 16 -
23.05.2019 08:00:00 13,3 12,8 9 5 - - NNE 1018,9 16 -
23.05.2019 07:00:00 11,1 10,6 9 5 - - N 1017,8 16 -
23.05.2019 06:00:00 9,4 9,4 0 0 - - N 1017,1 16 -
23.05.2019 05:00:00 10,6 10,0 0 0 - - N 1016,3 16 -
23.05.2019 04:00:00 10,6 10,0 8 4 - - NNW 1016,0 16 -
23.05.2019 03:00:00 11,1 11,1 5 3 - - SSE 1015,6 16 -
23.05.2019 02:00:00 12,8 11,7 0 0 - - N 1014,4 16 -
23.05.2019 01:00:00 12,2 11,7 5 3 - - S 1014,0 16 -
23.05.2019 00:00:00 14,4 11,1 0 0 - - N 1013,8 16 -
22.05.2019 23:00:00 15,0 11,1 9 5 - - NW 1012,4 16 -
22.05.2019 22:00:00 16,7 11,7 15 8 - - NW 1011,4 16 -
22.05.2019 21:00:00 17,2 12,8 11 6 - - W 1010,5 16 -
22.05.2019 20:00:00 21,7 12,2 9 5 - - W 1009,1 16 -
22.05.2019 19:00:00 22,8 11,1 18 10 - - WSW 1008,6 16 -
22.05.2019 18:00:00 22,8 11,1 21 11 - - SW 1008,8 16 -
22.05.2019 17:00:00 22,8 11,7 22 12 - - SSW 1008,3 16 -
22.05.2019 16:00:00 22,8 11,1 24 13 - - SSW 1008,1 16 -
22.05.2019 15:00:00 21,7 11,7 26 14 - - SSW 1007,6 16 -
22.05.2019 14:00:00 21,1 10,0 28 15 - - SW 1007,2 16 -
22.05.2019 13:00:00 19,4 10,0 18 10 - - SSW 1006,8 16 -
22.05.2019 12:00:00 17,8 9,4 26 14 - - SSW 1006,6 16 -
22.05.2019 11:00:00 16,1 10,0 24 13 - - S 1006,4 16 -
22.05.2019 10:00:00 14,4 8,9 26 14 - - S 1005,9 16 -
22.05.2019 09:00:00 13,9 8,9 21 11 - - SSW 1004,8 16 -
22.05.2019 08:00:00 12,8 8,9 22 12 - - SSW 1003,4 16 -
22.05.2019 07:00:00 12,8 8,3 21 11 - - SSW 1002,5 16 -
22.05.2019 06:00:00 12,8 8,3 15 8 - - SSW 1001,7 16 -
22.05.2019 05:00:00 13,9 10,0 29 16 - - SW 1000,7 16 -
22.05.2019 04:00:00 15,0 10,6 21 11 - - SSW 999,7 16 -
22.05.2019 03:00:00 15,6 10,6 26 14 - - S 998,6 16 -
22.05.2019 02:00:00 16,7 10,6 28 15 54 29 SSW 997,8 16 -
22.05.2019 01:00:00 17,2 13,3 26 14 - - S 996,7 16 -
22.05.2019 00:00:00 17,2 14,4 34 18 68 37 SSE 996,8 16 -
21.05.2019 23:00:00 16,7 15,0 35 19 52 28 SE 995,9 16 0,3
21.05.2019 22:00:00 16,7 15,0 26 14 - - SE 997,0 16 -
21.05.2019 21:00:00 17,2 13,9 21 11 - - SSE 996,3 16 -
21.05.2019 20:00:00 18,9 15,6 34 18 48 26 SSE 995,3 16 -
21.05.2019 19:00:00 19,4 16,1 26 14 48 26 SSE 994,8 16 -
21.05.2019 18:00:00 18,3 16,1 24 13 - - SSE 995,4 16 -
21.05.2019 17:00:00 16,1 15,6 22 12 52 28 SSE 996,8 16 0,0
21.05.2019 16:00:00 12,8 12,8 31 17 - - E 994,0 10 1,0
21.05.2019 15:00:00 11,1 10,6 21 11 50 27 ESE 998,7 16 -
21.05.2019 14:00:00 10,6 9,4 28 15 67 36 E 999,8 16 -
21.05.2019 13:00:00 10,0 8,9 39 21 54 29 E 1000,7 16 0,0
21.05.2019 12:00:00 8,9 8,3 28 15 48 26 E 1003,6 16 0,0
21.05.2019 11:00:00 8,3 8,3 18 10 - - ENE 1006,2 2,4 9,1
21.05.2019 10:00:00 8,3 7,8 16 9 - - ENE 1007,3 3,2 2,3
21.05.2019 09:00:00 9,4 8,9 21 11 - - ENE 1007,6 4,0 0,8
21.05.2019 08:00:00 10,0 9,4 16 9 48 26 E 1008,2 6 0,5
21.05.2019 07:00:00 10,6 9,4 26 14 63 34 E 1006,6 16 0,0
21.05.2019 06:00:00 11,1 9,4 22 12 55 30 E 1007,4 10 -
21.05.2019 05:00:00 11,1 9,4 26 14 48 26 E 1008,4 16 -
21.05.2019 04:00:00 10,6 9,4 18 10 - - ENE 1008,6 16 -
21.05.2019 03:00:00 10,6 10,0 16 9 - - NE 1010,5 16 0,0
21.05.2019 02:00:00 10,0 10,0 37 20 65 35 E 1006,0 16 0,0
21.05.2019 01:00:00 10,0 8,9 18 10 - - ENE 1011,2 16 0,3
21.05.2019 00:00:00 9,4 8,9 13 7 - - ENE 1011,8 16 0,3
20.05.2019 23:00:00 9,4 8,9 24 13 68 37 E 1009,8 16 1,3
20.05.2019 22:00:00 8,9 8,3 42 23 61 33 ESE 1010,2 10 7,6
20.05.2019 21:00:00 8,3 8,3 16 9 54 29 E 1013,0 3,2 3,3
20.05.2019 20:00:00 8,9 8,3 28 15 48 26 E 1013,8 8 6,1
20.05.2019 19:00:00 8,9 8,3 21 11 - - ENE 1016,1 3,2 6,9
20.05.2019 18:00:00 9,4 8,3 21 11 - - NNE 1018,2 8 4,6
20.05.2019 17:00:00 10,0 7,8 18 10 - - NE 1017,8 10 1,3
20.05.2019 16:00:00 10,6 6,7 16 9 - - E 1018,1 16 0,0
20.05.2019 15:00:00 10,6 6,7 18 10 - - ENE 1018,0 16 0,0
20.05.2019 14:00:00 11,1 6,7 15 8 - - NE 1019,3 16 -
20.05.2019 13:00:00 11,1 6,1 15 8 - - ENE 1020,5 16 -
20.05.2019 12:00:00 11,7 6,7 22 12 - - ENE 1019,3 16 -
20.05.2019 11:00:00 11,7 6,7 15 8 - - NNE 1020,3 16 -
20.05.2019 10:00:00 10,6 6,7 13 7 - - E 1020,7 16 -
20.05.2019 09:00:00 10,6 7,2 16 9 - - NNE 1019,9 16 -
20.05.2019 08:00:00 10,0 7,2 13 7 - - NNE 1019,4 16 -
20.05.2019 07:00:00 8,9 6,7 9 5 - - N 1019,1 16 -
20.05.2019 06:00:00 7,8 6,7 13 7 - - N 1018,8 16 -
20.05.2019 05:00:00 9,4 7,2 8 4 - - N 1018,5 16 -
20.05.2019 04:00:00 10,0 6,7 15 8 - - N 1018,1 16 -
20.05.2019 03:00:00 10,6 6,7 13 7 - - N 1017,6 16 -
20.05.2019 02:00:00 10,0 6,7 13 7 - - N 1017,3 16 -
20.05.2019 01:00:00 10,0 6,7 11 6 - - NNW 1017,4 16 -
20.05.2019 00:00:00 11,1 6,7 13 7 - - N 1016,9 16 -
19.05.2019 23:00:00 11,7 7,2 15 8 - - N 1016,6 16 -
19.05.2019 22:00:00 13,3 8,3 15 8 - - NNW 1015,4 16 -
19.05.2019 21:00:00 13,9 8,3 18 10 - - NNW 1014,0 16 -
19.05.2019 20:00:00 16,1 7,8 13 7 - - WNW 1013,1 16 -
19.05.2019 19:00:00 18,3 7,8 18 10 - - WNW 1012,5 16 -
19.05.2019 18:00:00 19,4 7,8 22 12 - - WNW 1012,1 16 -
19.05.2019 17:00:00 18,3 8,3 18 10 - - WNW 1011,8 16 -

tt = temperature
td = dewpoint
ff = wind speed
fx = gusts
dd = wind direction
ppp = reduced air pressure
vv = visibility
rr = precipitation

Next stations